GW0410 Weather Reports


time (UTC)temp
C
wind
direction
speed
KPH
gust
KPH
rain 1hr
cm
rain 24hr
cm
rain mn
cm
humidity
%
barometer
mb
20260503185039 16 0.0 0.0 0.00 0.00 0.00 50 1016.2
20260503184030 16 186 0.0 0.0 0.00 0.00 0.00 50 1016.5
20260503183029 16 0.0 0.0 0.00 0.00 0.00 49 1016.5
20260503182029 17 0.0 0.0 0.00 0.00 0.00 48 1016.5
20260503181033 18 0.0 0.0 0.00 0.00 0.00 46 1016.1
20260503180031 18 173 0.0 1.6 0.00 0.00 0.00 45 1016.1
20260503175019 19 179 0.0 1.6 0.00 0.00 0.00 44 1016.1
20260503174104 20 222 1.6 4.8 0.00 0.00 0.00 42 1016.0
20260503173034 20 159 1.6 6.4 0.00 0.00 0.00 41 1016.0
20260503172026 20 142 1.6 6.4 0.00 0.00 0.00 41 1016.0
20260503171047 20 200 1.6 8.0 0.00 0.00 0.00 40 1015.8
20260503131024 25 195 3.2 11.3 0.00 0.00 0.00 34 1017.9
20260503081020 22 186 4.8 14.5 0.00 0.00 0.00 38 1020.2
20260503072023 21 194 1.6 6.4 0.00 0.00 0.00 41 1020.0
20260503071040 21 195 4.8 12.9 0.00 0.00 0.00 41 1020.1
20260503055020 15 103 0.0 1.6 0.00 0.00 0.00 59 1019.9
20260503054034 13 0.0 0.0 0.00 0.00 0.00 63 1019.9
20260503053021 13 93 0.0 1.6 0.00 0.00 0.00 64 1019.9
20260503052100 11 0.0 0.0 0.00 0.00 0.00 68 1019.8
20260503051034 10 92 0.0 1.6 0.00 0.00 0.00 71 1019.7
20260503050024 8 96 0.0 0.0 0.00 0.00 0.00 80 1020.0
20260503045020 6 0.0 0.0 0.00 0.00 0.00 88 1019.9
20260503044020 3 0.0 0.0 0.00 0.00 0.00 91 1019.4
20260503043021 3 0.0 0.0 0.00 0.00 0.00 92 1019.3
20260503042024 2 0.0 0.0 0.00 0.00 0.00 92 1019.3
20260503041042 2 0.0 0.0 0.00 0.00 0.00 92 1019.0
20260503040022 2 0.0 0.0 0.00 0.00 0.00 92 1019.3
20260503035120 2 0.0 0.0 0.00 0.00 0.00 92 1019.3
20260503034020 2 0.0 0.0 0.00 0.00 0.00 92 1019.3
20260503033023 2 0.0 0.0 0.00 0.00 0.00 91 1019.0
20260503032042 2 0.0 0.0 0.00 0.00 0.00 91 1019.0
20260503031024 2 0.0 0.0 0.00 0.00 0.00 91 1019.1
20260503030023 2 0.0 0.0 0.00 0.00 0.00 91 1019.1
20260503025021 2 0.0 0.0 0.00 0.00 0.00 91 1019.1
20260503024020 2 0.0 0.0 0.00 0.00 0.00 90 1019.1
20260503023027 2 0.0 0.0 0.00 0.00 0.00 90 1019.1
20260503022050 2 0.0 0.0 0.00 0.00 0.00 90 1019.1
20260503021034 2 0.0 0.0 0.00 0.00 0.00 89 1019.1
20260503020024 2 0.0 0.0 0.00 0.00 0.00 89 1019.1
20260503015019 3 0.0 0.0 0.00 0.00 0.00 89 1019.2
20260503014034 3 0.0 0.0 0.00 0.00 0.00 89 1019.2
20260503013022 3 0.0 0.0 0.00 0.00 0.00 89 1019.1
20260503012040 3 0.0 0.0 0.00 0.00 0.00 88 1019.1
20260503011051 3 0.0 0.0 0.00 0.00 0.00 88 1019.1
20260503010022 3 0.0 0.0 0.00 0.00 0.00 87 1019.1
20260503005020 3 0.0 0.0 0.00 0.00 0.00 87 1019.1
20260503004020 3 0.0 0.0 0.00 0.00 0.00 87 1019.1
20260503003020 3 0.0 0.0 0.00 0.00 0.00 86 1019.1
20260503002019 4 0.0 0.0 0.00 0.00 0.00 86 1019.1
20260503001021 4 0.0 0.0 0.00 0.00 0.00 86 1018.7
20260503000022 4 0.0 0.0 0.00 0.00 0.00 86 1019.1
20260502235020 4 0.0 0.0 0.00 0.00 0.00 85 1019.1
20260502234024 4 0.0 0.0 0.00 0.00 0.00 85 1019.1
20260502233024 5 0.0 0.0 0.00 0.00 0.00 84 1019.1
20260502232026 5 0.0 0.0 0.00 0.00 0.00 83 1019.1
20260502231023 5 0.0 0.0 0.00 0.00 0.00 83 1019.1
20260502230022 5 0.0 0.0 0.00 0.00 0.00 82 1019.1
20260502225022 5 0.0 0.0 0.00 0.00 0.00 82 1019.1
20260502224035 5 0.0 0.0 0.00 0.00 0.00 81 1019.5
20260502223046 5 0.0 0.0 0.00 0.00 0.00 80 1019.5
20260502222020 6 0.0 0.0 0.00 0.00 0.00 80 1019.5
20260502221021 6 0.0 0.0 0.00 0.00 0.00 80 1019.5
20260502220032 7 0.0 0.0 0.00 0.00 0.00 79 1019.5
20260502215029 7 0.0 0.0 0.00 0.00 0.00 79 1019.5
20260502214033 7 0.0 0.0 0.00 0.00 0.00 78 1019.5
20260502213022 7 0.0 0.0 0.00 0.00 0.00 77 1019.5
20260502212053 7 0.0 0.0 0.00 0.00 0.00 76 1019.5
20260502211022 8 0.0 0.0 0.00 0.00 0.00 75 1019.5
20260502210023 8 0.0 0.0 0.00 0.00 0.00 73 1019.6
20260502205042 8 0.0 0.0 0.00 0.00 0.00 73 1019.7
20260502204023 8 0.0 0.0 0.00 0.00 0.00 72 1020.0
20260502203024 9 0.0 0.0 0.00 0.00 0.00 70 1019.9
20260502202022 10 0.0 0.0 0.00 0.00 0.00 68 1019.9
20260502201026 10 0.0 0.0 0.00 0.00 0.00 67 1020.0
20260502200049 11 0.0 0.0 0.00 0.00 0.00 63 1020.0
20260502195022 11 0.0 0.0 0.00 0.00 0.00 63 1020.0
20260502194019 12 0.0 0.0 0.00 0.00 0.00 61 1020.1
20260502193020 12 0.0 0.0 0.00 0.00 0.00 60 1020.1
20260502192039 13 0.0 0.0 0.00 0.00 0.00 57 1020.1
20260502191059 14 0.0 0.0 0.00 0.00 0.00 55 1020.1
20260502190031 15 0.0 0.0 0.00 0.00 0.00 52 1019.8